Regional Weather Roundup
Issued by NWS Sioux Falls, SD

Home | Current Version | Previous Version | Text Only | Print | Product List | Glossary On
Versions: 1 2 3 4 5 6 7 8 9 10 11 12 13 14 15 16 17 18 19 20 21 22 23 24 25 26 27 28 29 30 31 32 33 34 35 36 37 38 39 40 41 42 43 44 45 46 47 48 49 50
000
ASUS43 KFSD 011410
RWRFSD

WEATHER ROUNDUP FOR SE SOUTH DAKOTA/SW MINNESOTA/NW IOWA
NATIONAL WEATHER SERVICE SIOUX FALLS SD
900 AM CDT WED JUL 01 2015

NOTE: "FAIR" INDICATES FEW OR NO CLOUDS BELOW 12,000 FEET WITH NO
SIGNIFICANT WEATHER AND OR OBSTRUCTIONS TO VISIBILITY.


SDZ038>040-050-052>070-011500-
SOUTHEAST SOUTH DAKOTA

CITY           SKY/WX    TMP DP  RH WIND       PRES   REMARKS
BROOKINGS      CLOUDY    63  59  88 SE14      29.95S
CHAMBERLAIN    SUNNY     69  64  83 SE6       29.89R
HURON          PTSUNNY   67  65  93 SE7       29.89S FOG
MADISON        PTSUNNY   63  63 100 SE13      29.93S
MITCHELL       CLOUDY    69  67  93 E10       29.90S FOG
SIOUX FALLS    LGT RAIN  64  62  93 E9        29.93F FOG
WINNER         FAIR      70  62  76 SE8       29.88S
YANKTON        PTSUNNY   66  63  88 NE9       29.88F
$$

MNZ071-072-080-081-089-090-097-098-011500-
SOUTHWEST MINNESOTA

CITY           SKY/WX    TMP DP  RH WIND       PRES   REMARKS
FAIRMONT       PTSUNNY   61  54  77 E7        29.98R
JACKSON        CLOUDY    61  55  82 E9        29.98R
LUVERNE        CLOUDY    68  59  73 E7        29.96R
MARSHALL       CLOUDY    61  54  77 SE9       29.97
MONTEVIDEO     CLOUDY    63  57  82 S9        29.98S
PIPESTONE      LGT RAIN  63  59  88 SE7       29.95S
REDWOOD FALLS  CLOUDY    61  56  83 E6        29.99R
TRACY          LGT RAIN  61  59  95 E7        29.98R
WINDOM         DRIZZLE   61  55  82 E6        29.99R
WORTHINGTON    CLOUDY    63  55  77 E7        29.96F
$$

IAZ001>003-012>014-020>022-031-032-NEZ013-014-SDZ071-011500-
NORTHWEST IOWA

CITY           SKY/WX    TMP DP  RH WIND       PRES   REMARKS
CHEROKEE       CLOUDY    64  63  97 SE9       29.90F
DENISON        HVY RAIN  66  66 100 N8        29.92R
ESTHERVILLE    CLOUDY    62  57  83 E6        29.97R
LE MARS        PTSUNNY   66  64  94 E8G15     29.90S
ORANGE CITY    PTSUNNY   64  61  88 SE5       29.92R
SHELDON        PTSUNNY   66  66 100 E12G21    29.92R
SIOUX CITY     PTSUNNY   68  65  90 E8        29.87R FOG
SPENCER        CLOUDY    66  58  75 E13       29.95R
STORM LAKE     CLOUDY    63  61  94 SE10G16   29.94F FOG
$$

ABBREVIATIONS USED IN REMARKS
   TC - TEMPERATURE IN CELSIUS
  WCI - WIND CHILL INDEX
   HX - HEAT INDEX
  VSB - VISIBILITY




USA.gov is the U.S. government's official web portal to all federal, state and local government web resources and services.